GFSWCAN_850_spd_021.txt.gz
Wind_Speed
14 15 18 11 10 9 11 13 13 12 10 11 11 10 8 6 5 4 4 5 2 7 7 4 5 7 6 7 8 5 3 11 8 12 11 9 10 9 15 13 13 13 13 12 13 16 18 1 7 10 6 5 10 11
17 15 16 12 11 11 11 13 12 11 10 10 10 9 9 7 5 5 2 7 5 6 6 7 8 11 9 5 9 2 7 8 6 6 10 7 10 6 3 10 8 6 8 5 6 9 8 6 7 6 5 5 5 6
19 17 16 14 13 12 11 12 11 10 10 9 9 8 9 8 6 4 3 6 6 7 10 9 7 7 10 14 7 7 8 6 4 7 11 6 6 4 8 12 8 14 10 7 6 7 9 5 6 9 8 7 6 4
22 20 17 15 13 13 12 11 11 10 10 10 8 8 8 8 7 5 1 5 5 7 7 6 2 3 6 10 14 11 6 5 7 10 13 7 5 9 11 6 9 7 3 11 11 8 1 9 9 9 8 7 5 4
20 20 16 16 15 13 12 12 12 10 9 8 8 7 7 7 6 3 2 2 3 3 7 6 2 2 3 8 11 10 9 7 11 11 7 8 16 3 9 13 9 6 1 4 2 10 8 5 8 7 6 6 4 2
21 19 17 17 16 14 13 13 12 10 8 7 7 6 5 5 2 5 4 1 3 3 5 3 3 3 4 7 10 9 9 9 11 12 9 13 2 4 7 11 20 2 2 7 9 9 6 6 4 6 6 4 3 2
20 21 18 15 14 14 13 12 11 8 7 6 6 5 4 3 1 3 3 3 5 2 4 5 7 8 7 8 10 9 8 10 12 14 14 12 9 10 11 12 8 8 4 3 6 8 9 2 6 5 5 3 1 5
21 21 20 16 13 12 10 10 9 7 6 5 4 3 0 4 5 1 3 4 2 2 4 4 4 9 12 12 11 11 10 11 10 13 10 10 10 10 8 17 19 6 5 8 8 5 8 8 6 3 3 2 3 7
21 22 20 18 15 11 9 8 7 5 4 3 1 5 6 2 2 3 4 2 2 3 5 6 5 3 11 9 4 7 8 7 9 11 14 9 7 7 7 13 15 9 6 10 14 12 13 7 5 3 4 6 3 5
22 21 21 19 15 11 9 7 5 4 3 5 8 2 3 4 4 3 3 3 4 4 6 9 3 1 9 5 8 8 6 4 2 7 12 9 10 11 12 12 7 6 5 10 11 11 11 6 2 5 4 9 7 6
24 22 21 18 16 12 10 7 4 4 7 5 4 2 2 3 1 4 3 5 6 5 7 10 3 1 4 4 1 3 2 3 4 5 4 5 8 11 12 3 6 8 11 11 10 10 10 10 6 8 7 14 15 8
26 23 22 19 17 12 10 7 8 9 4 5 2 3 4 3 5 5 3 4 5 3 4 3 5 7 2 4 4 4 4 3 4 6 3 7 5 7 6 4 6 8 10 10 12 13 12 12 11 12 8 10 11 7
27 23 20 19 15 13 11 9 10 10 9 4 2 4 3 4 1 5 7 4 3 6 2 2 7 5 3 4 5 4 4 5 3 4 5 4 5 4 3 4 7 10 11 12 13 12 13 14 14 14 12 10 9 18
27 22 20 18 15 14 11 10 11 11 5 5 5 1 5 5 5 1 1 2 2 2 2 4 3 1 3 4 3 4 3 3 3 5 1 2 2 3 5 8 11 14 15 16 14 14 13 13 14 14 16 15 14 13
28 22 19 16 16 13 11 11 13 11 3 5 5 3 8 8 1 4 2 3 3 4 3 5 2 5 2 3 3 2 3 5 1 2 1 1 6 9 11 13 14 16 18 17 16 14 13 12 13 13 14 16 14 11
26 21 16 17 16 14 12 11 12 5 3 3 4 6 6 4 7 6 6 8 3 1 5 5 3 3 3 3 2 5 4 4 2 2 7 9 10 14 17 19 19 22 17 16 15 15 14 12 14 11 10 13 12 9
22 11 20 18 16 14 14 10 7 5 4 4 5 8 4 2 5 3 1 2 2 1 1 2 2 4 3 2 4 4 5 5 9 9 12 15 19 22 23 22 24 16 13 13 12 12 11 9 8 7 7 8 10 11
8 13 19 19 17 14 9 7 4 4 5 10 2 4 3 5 4 4 1 2 3 4 8 3 4 5 3 3 4 4 7 12 12 14 19 19 21 18 17 13 10 10 8 8 9 8 9 8 11 13 15 15 15 14
14 20 20 20 16 8 6 4 3 3 7 3 3 5 4 3 3 2 1 3 4 5 7 4 4 4 3 3 9 12 14 18 17 21 17 15 14 11 6 3 1 2 6 11 13 14 15 15 15 15 14 14 16 15
19 19 20 17 12 3 4 4 3 4 3 4 6 4 2 1 2 4 4 5 6 5 5 4 6 4 9 6 10 13 16 18 17 13 11 12 11 6 1 5 11 17 22 24 21 16 15 17 17 19 23 24 24 22
17 15 10 7 2 1 2 3 5 0 3 4 4 6 5 3 1 4 6 7 8 4 7 10 9 10 9 12 13 17 11 10 11 7 11 3 3 3 10 14 20 18 18 12 15 16 16 20 22 22 22 22 19 22
9 9 5 1 1 1 3 3 1 1 4 1 2 3 4 3 4 2 7 3 4 7 5 7 9 10 12 15 6 5 5 5 4 2 6 14 16 16 20 21 20 21 19 21 20 22 22 22 24 27 30 29 28 27
7 4 2 2 2 1 2 3 2 1 2 2 2 2 2 1 1 6 3 3 5 9 12 13 9 5 3 3 5 4 4 4 8 15 21 23 22 21 22 23 24 23 23 21 23 27 29 27 27 30 33 32 27 22
2 1 2 2 4 2 2 1 1 0 1 1 1 1 0 1 3 1 2 4 10 6 3 7 8 7 6 7 8 9 9 12 17 21 23 25 26 27 27 26 25 23 22 24 26 29 29 28 25 18 17 17 16 16
2 1 2 3 2 2 1 2 1 0 2 2 1 0 1 1 1 1 2 6 11 10 6 8 12 13 14 17 21 25 27 29 29 27 24 25 23 27 23 21 19 23 23 21 15 18 17 16 14 14 14 14 15 15
0 3 1 1 2 1 1 1 2 3 2 2 1 1 1 0 2 2 4 10 10 14 14 19 25 25 25 26 25 21 19 19 19 19 14 15 15 17 18 17 15 11 12 14 16 16 15 13 12 12 14 14 13 12
2 2 1 1 1 2 2 3 3 3 2 2 2 2 2 2 2 3 4 12 15 15 19 21 22 27 22 15 18 20 18 15 14 16 17 14 13 13 13 14 14 13 12 12 12 11 11 11 12 12 11 10 8 7
2 3 2 4 3 4 2 2 2 2 1 4 3 2 2 1 1 2 5 14 17 19 17 17 22 15 12 14 15 15 14 12 12 12 13 14 13 12 12 12 15 15 16 15 13 11 11 10 9 8 6 5 4 4
2 4 4 4 4 4 1 1 2 4 4 3 3 3 3 3 15 19 16 16 15 14 15 13 8 8 11 12 11 9 8 9 10 11 11 12 12 12 11 11 12 11 10 9 10 10 9 8 7 5 3 3 2 2
3 5 2 2 3 2 4 8 13 14 17 20 23 25 23 22 18 14 12 8 7 11 10 8 8 8 8 8 8 8 9 8 8 9 11 11 11 10 9 8 7 6 5 4 3 3 3 3 2 2 2 0 0 1
7 13 18 16 14 13 15 17 17 19 18 18 16 18 16 12 10 10 11 10 11 10 10 10 10 9 9 9 9 9 9 9 10 10 9 8 7 6 4 3 3 2 1 1 0 1 1 1 1 2 2 2 4 3
9 10 14 15 10 10 15 18 20 18 16 15 17 16 14 12 12 8 7 8 7 7 7 7 7 6 6 7 8 9 10 9 8 6 6 6 5 5 4 3 2 1 0 0 0 1 2 2 3 3 3 3 3 4
14 11 12 15 14 12 12 12 12 11 12 11 10 10 9 9 9 7 5 5 7 8 8 8 8 8 8 8 8 8 7 5 5 2 2 2 1 3 5 1 2 1 1 1 1 2 1 2 2 3 4 4 4 4

GFSWCAN_850_spd_024.txt.gz
Wind_Speed
16 16 14 15 14 11 10 12 13 14 13 12 11 10 8 7 6 2 2 11 5 8 11 6 6 9 13 8 8 15 5 4 5 7 8 8 9 10 15 14 10 13 11 12 11 14 20 16 12 4 1 7 9 12
18 17 16 15 14 12 12 11 12 13 12 12 10 9 8 6 5 3 4 6 8 7 9 8 9 11 9 7 9 10 10 4 5 6 8 8 11 10 9 8 14 3 11 9 9 7 8 12 15 12 8 5 7 7
20 19 18 16 15 13 12 11 12 12 12 11 10 10 9 7 5 5 4 7 12 10 14 14 11 7 9 12 8 6 5 9 7 9 10 6 7 8 5 9 8 6 4 3 3 6 10 11 13 13 11 9 6 4
22 20 19 18 16 13 12 12 11 12 11 10 9 8 8 8 6 5 2 5 7 9 8 10 3 5 5 9 12 13 9 10 11 11 12 7 8 14 6 4 8 6 9 6 6 8 12 11 12 9 9 10 8 11
20 20 20 17 15 13 13 11 11 12 11 10 8 8 7 7 6 4 4 2 4 5 7 8 4 5 5 7 10 11 10 7 7 12 9 9 18 12 12 7 7 13 4 3 4 13 11 9 10 9 7 7 7 7
21 19 17 16 15 14 13 12 12 12 10 9 8 7 6 5 3 8 3 3 4 4 6 4 7 3 5 6 8 11 11 7 10 13 10 15 13 3 6 8 8 12 9 8 4 6 11 11 5 4 5 6 11 7
21 21 20 17 15 13 13 12 11 10 8 8 7 6 5 4 3 2 1 6 5 3 5 5 4 6 7 7 9 10 10 11 11 14 16 17 11 5 6 12 9 9 8 8 5 6 6 1 8 7 5 3 5 7
19 20 19 18 15 13 11 10 9 8 6 6 5 4 2 2 5 2 3 7 4 2 6 4 4 9 12 10 12 11 12 11 13 13 14 14 15 8 6 10 16 6 5 6 6 7 6 9 7 5 9 2 3 3
22 19 18 18 17 13 11 9 7 6 5 4 2 2 4 1 2 3 6 5 4 5 7 6 3 4 10 13 3 4 7 8 9 12 14 12 9 7 8 16 14 13 6 2 7 7 11 13 12 8 6 9 6 5
26 22 20 19 17 14 11 8 6 5 3 3 6 1 3 3 5 1 4 2 3 6 7 7 6 2 10 13 5 3 6 4 3 7 9 10 10 16 14 13 8 2 1 2 6 8 11 11 6 5 9 6 5 2
27 24 20 19 18 15 12 8 6 5 6 6 3 2 1 1 2 2 3 5 6 4 8 11 10 1 4 3 4 4 3 2 3 4 2 4 7 13 12 10 5 1 3 7 9 10 13 15 10 13 11 8 11 10
29 26 22 20 18 17 12 10 10 13 2 3 1 3 4 4 2 2 3 5 6 4 4 7 4 6 4 3 2 2 4 4 5 2 3 6 4 6 6 7 5 4 4 6 10 11 13 15 15 16 15 9 10 10
29 27 23 22 19 17 13 12 16 9 7 4 4 3 4 4 1 5 7 6 4 3 1 3 1 4 1 1 4 5 2 6 0 4 4 4 9 5 2 1 2 5 7 10 13 14 14 15 16 16 18 15 13 14
30 28 24 22 19 16 14 13 15 12 8 5 6 2 5 5 6 2 2 3 3 2 4 2 3 2 4 3 3 4 4 2 3 5 2 4 6 3 4 6 7 7 8 11 15 17 18 16 16 16 17 18 19 13
33 28 22 21 18 16 14 14 16 13 3 6 6 3 8 11 2 3 5 2 1 4 3 5 4 6 2 2 3 3 3 4 1 3 3 5 1 4 8 10 12 14 15 14 16 18 19 16 18 19 17 16 19 15
32 24 21 19 18 16 15 15 15 4 4 4 4 5 7 4 2 5 6 8 5 3 3 4 1 2 4 2 3 4 5 3 3 5 6 5 7 10 14 16 19 21 18 18 18 17 18 18 18 20 23 22 22 26
27 13 21 20 19 17 17 12 8 5 4 4 7 8 3 7 2 1 6 4 2 3 1 1 2 2 3 2 3 3 3 1 4 6 6 9 11 16 19 17 18 18 17 14 15 13 15 16 20 21 14 13 7 8
9 11 22 23 21 20 12 11 5 6 7 11 4 3 4 1 4 1 6 3 7 3 1 2 7 3 2 2 1 4 11 16 14 12 14 17 16 18 15 16 14 12 11 11 11 11 12 11 7 10 1 14 6 14
14 22 22 23 18 9 8 6 5 4 10 4 4 3 2 2 2 5 3 2 1 3 4 2 3 3 3 4 11 13 15 15 16 18 15 12 13 14 12 9 8 7 6 4 5 6 7 8 7 5 7 7 12 11
17 23 24 18 12 3 5 5 4 5 2 0 1 4 3 4 4 3 1 4 5 5 3 3 6 4 5 3 6 9 13 12 12 15 13 15 11 9 6 3 1 11 17 17 14 13 12 11 13 12 12 13 18 17
18 20 14 7 2 3 3 5 5 3 1 2 2 1 3 2 1 5 6 7 9 4 5 6 7 8 7 7 8 12 7 8 9 8 13 8 7 2 4 8 14 14 15 14 13 14 17 21 21 18 19 20 20 20
12 11 5 1 2 1 4 1 2 2 2 2 2 3 1 3 5 5 8 3 4 6 4 8 10 11 12 11 8 4 3 6 6 3 1 7 12 11 10 11 9 14 13 14 14 17 18 18 19 21 21 22 24 26
9 6 3 4 2 2 4 2 2 4 3 1 1 2 0 3 2 5 3 2 5 9 11 12 10 6 3 1 1 3 2 4 9 13 14 17 19 20 19 17 16 18 19 17 18 22 23 24 25 30 30 29 28 25
3 2 2 4 6 4 3 1 2 3 4 2 2 1 1 2 2 1 2 4 8 11 2 3 5 5 5 3 6 8 6 12 16 16 15 18 22 17 18 18 20 20 22 27 32 32 30 27 25 21 17 14 14 15
3 2 2 3 3 2 1 2 2 0 2 2 1 1 2 1 0 1 2 4 9 2 3 3 6 8 10 10 13 16 17 21 21 20 19 21 23 21 21 23 24 26 24 26 19 13 9 8 8 12 14 14 14 14
0 3 2 2 2 1 1 2 2 3 2 3 1 2 3 2 0 2 2 9 8 7 10 11 11 15 20 26 25 26 26 22 20 17 15 14 15 14 16 18 13 12 15 14 12 12 12 13 12 12 12 13 12 11
2 1 1 2 1 1 1 2 3 2 2 3 3 3 2 1 1 2 3 2 11 17 19 25 23 20 20 18 16 15 15 15 13 11 10 12 10 10 12 12 12 9 9 10 10 9 11 12 12 11 10 9 8 6
2 2 2 4 2 4 2 2 3 4 5 6 5 0 2 2 1 1 10 14 13 19 20 10 17 15 12 16 17 14 13 12 11 11 12 11 10 9 9 10 12 13 14 13 10 9 9 8 8 7 6 5 4 3
3 4 4 4 4 5 5 2 2 2 1 7 4 2 3 3 9 17 22 14 18 17 9 7 5 9 9 9 9 8 8 10 9 10 11 12 12 11 11 11 10 9 8 5 7 9 9 9 9 7 5 3 2 2
4 7 3 4 3 1 4 6 10 8 11 14 16 19 19 19 19 18 17 18 14 8 7 7 6 7 5 9 10 9 8 8 8 9 10 11 11 10 8 7 7 6 4 3 4 3 3 3 2 2 2 0 1 0
9 9 5 7 8 12 15 15 16 21 25 23 16 13 11 10 9 10 9 8 8 8 9 8 7 7 7 8 8 9 9 7 8 9 7 8 8 6 5 4 3 2 1 0 1 1 2 1 2 1 2 2 4 4
6 7 10 10 16 17 15 14 16 17 16 15 12 10 10 11 10 9 8 8 8 8 6 7 8 9 7 7 7 9 11 11 8 7 10 9 8 5 3 2 2 1 1 1 1 2 1 2 3 2 2 4 3 4
5 6 9 11 10 7 10 9 7 7 11 11 12 12 11 9 7 7 6 5 5 7 7 6 6 7 7 9 9 8 8 6 6 5 5 3 4 5 5 4 2 2 2 1 1 2 2 2 2 3 3 4 4 4

GFSWCAN_850_spd_030.txt.gz
Wind_Speed
13 12 11 11 11 10 11 13 11 12 12 11 9 9 8 7 4 4 5 4 5 4 14 6 4 9 10 10 3 10 4 10 6 4 3 2 2 3 1 4 4 6 5 5 2 3 6 12 5 2 4 1 19 14
15 15 13 13 12 11 11 13 12 10 11 10 9 8 7 7 5 1 4 5 8 9 8 11 13 6 7 1 6 9 5 1 5 3 2 1 2 2 3 3 4 2 6 5 6 4 4 16 16 8 7 7 15 23
17 16 15 14 13 12 12 12 12 10 10 10 9 7 6 6 6 4 1 6 4 5 12 6 5 1 2 2 2 2 3 4 4 5 1 2 1 2 3 2 3 5 6 4 3 4 4 21 19 18 16 16 6 19
19 19 17 17 15 14 13 12 11 10 10 10 9 7 6 6 6 5 1 4 7 4 3 4 7 2 4 8 4 6 3 3 4 5 1 0 0 1 2 4 2 3 6 2 1 2 0 11 9 10 17 18 16 4
20 19 17 16 15 15 13 12 11 10 10 9 9 7 6 5 3 2 10 4 5 3 3 11 8 5 7 5 5 5 6 7 4 3 1 2 3 3 5 1 3 5 2 3 2 1 6 6 10 6 7 9 9 8
18 18 16 14 14 13 12 11 11 10 10 9 8 6 5 4 1 7 3 3 1 3 3 3 6 4 8 4 5 7 6 5 4 3 3 4 1 5 1 0 4 16 15 11 4 1 9 11 10 9 6 5 4 4
13 14 15 15 15 14 11 10 10 9 9 8 7 6 4 4 3 3 1 1 2 4 2 6 7 4 10 3 2 6 8 6 5 3 5 3 4 9 1 3 5 10 14 11 9 11 14 10 10 13 7 5 3 0
15 13 13 15 15 14 11 10 9 8 8 7 5 4 3 2 1 2 1 4 3 2 2 1 5 2 8 3 2 8 4 6 5 5 3 4 4 5 3 6 2 3 3 8 12 11 11 8 9 10 6 3 1 3
18 17 15 13 12 12 11 9 7 6 5 4 2 1 2 3 1 0 4 6 4 4 2 2 1 3 2 5 8 7 8 2 5 6 5 4 2 4 8 9 12 9 12 14 11 7 4 5 6 8 10 5 1 3
22 20 18 15 12 11 11 9 7 5 4 2 4 2 1 1 3 4 2 2 2 4 4 5 5 2 1 2 2 4 0 2 1 6 6 3 4 12 17 14 14 10 16 13 11 6 2 3 9 9 9 8 6 1
23 23 21 18 14 11 12 10 8 5 4 5 2 1 1 3 2 2 2 4 5 4 7 8 12 4 4 2 2 4 1 2 1 5 4 2 3 4 16 18 19 18 16 16 12 9 5 4 5 7 8 9 11 8
22 21 22 19 17 13 13 12 10 9 8 6 3 2 1 2 2 1 3 4 4 4 5 6 8 11 2 4 4 0 1 2 4 5 3 1 2 10 13 14 12 10 9 8 5 3 2 3 5 6 6 7 7 14
22 20 21 16 19 15 15 14 11 13 8 1 1 1 3 3 1 4 4 3 3 3 2 3 4 7 3 3 4 2 1 4 7 2 3 2 8 15 14 13 10 6 4 3 4 6 8 8 7 7 8 7 6 6
21 19 22 19 19 17 17 14 13 14 5 2 3 3 4 4 4 4 3 3 1 4 5 7 4 2 3 2 3 2 4 2 3 3 1 1 8 9 8 7 8 10 11 13 15 16 15 17 17 13 13 14 12 10
19 18 22 20 23 18 17 14 15 12 5 3 3 4 6 11 9 4 8 5 2 2 4 4 2 3 1 1 2 1 2 2 3 1 1 3 5 6 9 11 13 17 21 24 24 24 23 22 23 23 21 19 17 15
20 20 26 25 23 19 16 14 14 9 3 3 6 4 6 2 5 3 11 4 5 1 3 1 1 2 2 3 1 4 0 1 1 1 2 1 6 10 14 20 24 23 22 19 19 19 18 18 20 23 24 15 13 13
26 25 26 26 22 18 15 15 12 5 4 4 5 7 6 1 2 0 4 4 5 3 1 3 2 3 2 1 1 3 2 1 7 5 5 11 17 22 22 21 17 18 15 15 16 15 12 11 11 11 10 10 12 10
23 26 31 25 23 20 19 11 5 5 6 8 5 5 8 1 4 4 4 6 7 4 2 1 0 2 2 2 2 1 9 6 3 8 14 16 17 16 17 17 16 15 13 13 8 9 9 9 10 10 8 5 3 3
28 33 26 24 23 14 7 6 3 3 7 9 9 11 4 5 8 4 5 4 3 2 2 2 1 0 2 4 7 5 3 5 11 13 13 11 13 14 13 10 10 10 7 3 3 2 2 2 2 2 8 6 5 2
23 24 25 25 15 4 4 4 5 4 4 3 3 2 2 3 7 6 5 5 5 3 2 2 2 3 6 5 2 2 8 9 8 11 10 8 7 6 5 6 4 2 3 5 4 3 3 2 2 1 1 3 11 11
27 28 24 14 3 3 3 3 6 3 4 2 0 2 1 4 3 4 3 4 2 1 1 7 9 6 2 3 7 11 10 7 7 8 9 7 4 3 2 8 10 5 6 6 9 8 9 7 5 4 5 5 6 6
23 18 10 6 3 3 3 1 1 3 5 4 5 2 3 4 4 4 5 2 2 1 0 2 6 9 11 11 9 5 3 4 3 3 3 1 1 3 3 3 5 7 8 10 14 12 12 10 10 14 16 16 14 15
10 5 3 3 2 2 2 5 5 3 3 5 3 3 3 3 3 4 0 2 4 6 7 11 10 9 6 3 2 2 2 2 2 5 9 8 8 8 8 8 9 11 12 14 16 16 19 20 21 23 24 25 26 26
1 1 2 2 3 3 2 1 3 3 3 3 3 2 2 1 4 2 2 3 5 7 7 3 1 2 2 1 2 4 5 9 13 13 13 11 13 12 12 17 23 27 28 29 29 28 27 25 24 23 23 22 22 21
1 1 2 3 3 2 1 3 2 4 2 3 2 1 1 1 2 1 2 4 6 7 4 2 3 3 2 5 6 8 10 12 12 12 11 12 17 22 24 25 24 23 21 20 18 15 13 11 10 11 11 14 14 15
1 1 2 3 3 1 1 1 0 1 0 2 1 2 1 1 2 3 3 3 6 2 1 6 6 6 10 10 18 23 22 19 17 15 15 15 18 19 18 14 12 10 8 7 5 4 8 7 8 8 9 12 10 11
1 2 0 0 0 2 3 2 2 2 2 3 3 3 2 2 3 3 4 5 2 3 5 6 11 19 24 26 21 17 15 13 11 8 6 7 8 4 1 5 8 6 6 5 5 9 8 9 12 9 6 7 11 7
3 2 1 1 1 2 1 3 3 3 3 4 4 4 2 3 2 2 2 8 12 16 17 25 22 21 18 17 12 9 6 5 9 12 13 11 10 7 6 8 7 4 5 5 5 3 4 5 5 7 4 6 6 2
3 3 4 2 2 4 5 4 4 6 6 9 3 2 2 3 6 12 19 26 23 17 14 12 11 13 12 10 8 5 3 2 9 10 9 11 10 9 7 5 4 4 4 4 3 5 6 7 8 4 2 3 4 1
3 7 3 4 4 4 3 7 3 5 7 8 4 6 12 17 19 18 21 18 17 15 8 5 4 5 5 5 4 4 4 7 16 12 10 9 10 10 9 7 8 8 7 6 5 3 4 1 0 4 1 3 4 4
3 6 4 2 3 5 8 5 9 13 14 15 14 19 16 12 15 16 17 16 11 7 6 5 3 10 10 10 9 13 13 11 8 10 12 12 11 9 6 5 6 5 2 2 2 2 1 2 4 6 5 5 7 7
5 3 5 2 4 12 14 16 16 17 18 17 13 13 8 4 3 7 10 11 9 9 7 10 12 7 6 17 18 12 8 8 11 15 13 10 8 5 6 7 9 6 3 2 2 3 4 4 3 2 5 2 3 5
4 10 12 13 7 5 13 6 4 4 5 5 8 14 14 7 5 4 3 5 7 4 3 13 18 10 6 4 4 8 8 7 7 6 5 5 6 5 5 4 2 3 4 3 2 0 3 5 4 3 5 6 6 6

GFSWCAN_850_spd_033.txt.gz
Wind_Speed
16 14 12 10 10 9 9 10 12 10 10 10 8 8 8 7 5 2 1 5 6 5 10 6 3 5 7 5 2 8 3 6 5 4 2 1 1 2 1 2 1 3 4 2 3 4 5 4 4 3 4 3 14 16
17 14 13 12 12 10 10 10 11 11 9 9 9 8 8 8 6 3 4 7 11 9 7 10 12 10 8 4 6 8 2 1 3 3 2 2 2 3 1 2 3 1 4 3 5 5 4 7 2 4 7 5 7 12
17 16 14 13 13 11 11 11 11 12 9 8 9 9 7 8 7 5 4 6 9 6 9 4 3 3 3 3 2 3 3 2 3 3 3 2 4 2 1 2 3 4 3 3 3 4 2 7 11 10 7 5 3 8
18 17 16 15 15 14 13 12 11 12 10 8 9 8 7 7 7 5 4 3 7 4 3 2 4 8 5 3 3 5 2 1 3 4 4 2 1 1 2 2 2 2 4 3 1 4 4 2 8 11 9 7 5 9
19 18 17 17 17 16 14 12 12 11 10 9 8 8 7 6 5 5 3 1 5 4 3 9 4 1 6 3 2 5 5 4 3 2 2 1 2 2 2 2 2 2 2 2 3 4 4 5 8 4 7 9 7 4
20 19 18 17 15 14 12 11 11 10 10 8 8 7 6 5 2 5 2 2 4 6 5 3 4 1 6 4 3 5 4 2 0 1 2 2 1 1 2 0 4 1 6 4 6 12 15 13 9 5 9 9 6 5
18 16 16 17 16 14 12 10 10 10 8 7 7 6 6 5 3 4 1 1 4 4 3 6 8 2 6 3 1 2 4 1 1 1 3 2 2 3 2 3 8 5 10 15 19 21 14 9 9 10 7 6 4 3
14 13 12 13 15 13 12 11 10 8 7 7 6 5 5 4 3 3 2 2 4 3 3 1 5 1 7 2 0 3 3 5 3 2 2 3 1 2 2 8 5 10 8 12 12 10 15 13 9 8 8 6 3 2
15 14 13 12 12 11 12 11 9 7 6 5 3 2 1 2 2 1 3 6 5 4 2 2 2 3 1 1 2 1 3 1 2 2 3 4 1 2 6 8 9 6 11 17 18 15 14 12 12 10 6 3 4 5
20 18 15 12 10 9 10 10 8 6 4 2 4 1 2 2 1 4 3 2 2 3 4 4 3 3 1 1 1 0 0 1 1 4 5 2 3 7 9 8 8 12 11 21 20 14 11 8 7 6 4 1 1 5
23 20 19 15 14 10 9 10 8 5 4 6 3 2 2 2 1 2 2 2 3 3 6 6 9 2 2 2 2 1 2 0 1 3 2 0 3 6 13 18 17 15 15 14 14 12 9 6 5 5 4 4 4 4
26 22 20 18 16 13 10 11 9 8 6 4 2 2 2 1 2 0 2 3 3 4 5 5 7 9 4 4 2 0 2 2 4 4 1 2 2 8 15 18 18 17 15 14 11 8 5 2 2 3 3 4 7 7
22 21 21 19 18 15 11 12 10 11 8 2 1 1 1 3 3 3 4 3 3 4 4 6 3 5 5 3 3 2 2 4 4 2 1 2 3 7 10 9 9 7 6 5 4 5 6 7 7 8 9 8 8 9
22 22 20 21 20 17 12 13 12 12 4 2 3 3 4 3 4 5 4 3 6 5 2 10 5 2 1 2 3 2 3 1 1 1 1 1 6 4 4 5 5 6 8 12 15 17 18 18 17 15 13 15 16 15
23 21 17 23 18 17 15 14 12 12 3 2 2 3 5 9 8 7 9 8 4 2 1 4 5 2 2 2 0 2 2 2 1 1 2 6 2 3 8 11 14 18 21 23 22 20 18 19 20 22 21 21 21 20
23 20 22 23 19 17 17 14 13 9 2 3 5 3 6 3 4 7 8 3 3 1 0 1 3 2 1 2 2 3 1 2 2 2 3 1 4 10 15 18 20 20 20 19 16 14 16 16 15 14 13 14 18 18
23 18 22 22 22 17 15 15 10 4 3 3 5 7 10 9 8 5 1 2 3 2 1 3 2 2 0 0 2 2 2 2 7 5 1 8 14 18 19 19 18 16 16 15 14 11 13 12 11 12 14 12 10 13
17 21 24 26 23 20 17 9 5 4 5 7 5 6 5 4 4 3 3 3 1 3 1 1 2 2 1 0 2 2 4 3 1 7 11 15 17 17 16 17 15 13 13 11 9 8 9 8 10 11 9 5 2 1
19 26 27 25 20 13 7 6 4 3 8 7 8 11 7 3 1 3 4 5 3 4 3 2 3 1 2 2 4 3 1 4 10 14 15 14 14 14 13 10 11 9 6 6 4 2 3 4 5 4 3 3 1 2
23 27 23 24 17 4 3 4 6 4 4 3 3 4 4 1 4 5 4 3 3 2 3 2 2 2 3 4 2 1 7 11 12 13 13 9 8 8 7 10 4 3 4 3 3 2 1 2 4 4 3 5 7 6
24 22 23 16 4 3 3 3 4 3 3 3 0 3 3 4 2 1 4 6 1 2 2 2 7 7 5 5 5 8 13 12 10 11 11 10 6 4 4 4 5 5 3 2 2 4 6 7 7 8 9 8 6 4
23 23 14 5 3 2 2 2 1 2 2 3 0 1 4 3 3 4 7 2 2 2 2 6 6 7 9 11 11 11 9 6 6 5 5 3 2 2 4 4 1 3 4 7 6 7 10 11 11 12 12 12 13 15
17 7 2 4 3 2 1 1 1 2 1 4 1 3 3 2 4 5 2 2 3 5 5 7 10 10 10 8 6 5 4 3 3 2 4 4 4 4 3 4 6 6 12 10 10 12 14 15 15 16 17 18 18 19
1 2 2 2 3 3 2 2 2 3 3 3 2 2 2 2 4 2 2 4 4 5 7 7 5 3 2 2 2 2 1 7 8 6 6 6 7 8 11 13 15 18 21 22 22 22 21 20 19 18 17 17 18 19
1 1 2 3 1 2 2 3 3 4 2 2 1 0 2 1 1 1 2 4 4 6 5 4 4 3 2 3 5 7 7 8 10 9 9 11 18 20 21 21 20 19 18 16 15 14 13 13 13 11 12 14 15 14
2 1 1 3 3 2 1 2 1 2 2 2 1 3 1 0 2 4 3 3 4 3 3 5 5 5 6 8 10 10 11 12 11 12 16 18 18 17 15 13 11 9 8 7 5 2 0 1 0 4 6 6 7 8
1 1 1 2 2 1 3 2 2 1 2 2 2 3 1 2 3 4 3 4 2 3 6 7 8 10 12 15 16 14 14 13 12 10 11 11 9 4 2 2 7 5 6 5 2 3 4 7 7 5 3 2 3 4
2 2 2 2 2 1 0 2 2 3 3 4 4 3 2 3 3 2 2 2 3 6 9 15 26 23 17 12 10 7 4 3 0 6 8 8 5 2 2 4 4 4 4 4 3 2 2 5 2 4 3 4 3 3
3 3 4 3 2 3 4 4 4 5 5 9 3 3 3 4 3 3 6 7 14 18 18 15 10 8 7 5 3 2 2 1 2 8 6 8 9 6 5 5 5 4 2 1 2 3 2 2 3 2 3 5 6 4
2 6 3 3 2 3 4 7 6 3 6 7 4 2 3 3 7 12 17 16 14 12 11 7 6 4 2 2 2 2 3 7 8 9 8 10 11 10 6 5 5 4 5 5 4 3 2 4 1 3 1 4 4 5
3 9 4 4 2 1 0 0 2 4 4 2 8 10 10 7 9 15 14 14 11 7 4 3 2 4 4 8 6 4 4 6 7 8 12 7 6 6 7 8 6 5 3 2 3 3 2 2 6 6 6 7 6 5
3 4 1 3 4 9 8 7 8 11 9 7 4 5 6 3 1 8 11 9 8 7 4 3 5 3 3 11 14 9 5 5 5 9 12 12 10 8 4 5 8 7 5 4 4 6 6 6 7 6 5 6 6 7
13 15 15 8 3 3 4 3 3 5 7 4 3 6 6 3 4 3 2 3 2 4 3 4 7 7 9 10 12 12 12 12 11 10 8 7 5 4 4 6 7 8 6 5 4 4 4 5 6 5 6 7 7 8

GFSWCAN_850_spd_036.txt.gz
Wind_Speed
16 16 14 12 9 8 9 9 10 11 10 10 10 9 9 7 5 3 4 6 7 5 10 6 4 3 5 4 2 7 4 5 4 4 2 2 2 0 3 1 2 3 4 2 2 4 6 5 3 4 3 2 7 15
17 16 15 13 11 9 9 9 10 10 11 9 9 9 8 8 6 4 3 7 10 7 7 13 14 12 12 7 5 5 1 1 3 3 1 2 2 3 1 1 4 2 4 2 5 4 3 6 3 2 1 3 7 16
18 17 15 14 12 10 9 10 10 10 10 9 9 9 8 7 6 5 5 5 9 6 10 5 2 4 4 2 2 3 3 4 3 2 3 2 4 3 2 1 1 3 2 2 2 1 3 7 3 5 5 3 3 7
19 17 16 14 13 11 10 11 11 11 11 9 8 9 7 6 6 6 6 4 6 5 3 2 3 5 5 2 1 3 5 5 5 4 3 2 3 1 2 2 2 3 1 4 2 4 3 2 4 4 6 5 3 9
19 18 16 16 14 13 12 12 11 11 10 9 7 8 7 5 5 5 1 3 6 5 3 8 5 2 6 4 2 4 6 5 4 2 2 1 2 3 1 1 2 1 4 3 4 5 2 3 1 1 4 7 6 4
20 18 16 16 15 14 13 12 10 10 10 8 7 7 6 5 2 3 1 1 4 8 4 3 3 0 8 6 3 5 4 1 1 0 1 1 1 1 3 1 4 0 3 2 4 9 6 4 1 7 9 7 6 8
18 17 17 17 16 14 12 11 9 9 9 7 6 6 5 4 2 2 2 2 5 7 3 7 8 1 6 6 2 2 4 1 0 1 0 1 2 2 2 3 5 7 7 13 14 12 5 5 5 8 7 5 4 3
18 18 16 16 16 14 13 12 10 9 8 7 6 5 4 3 1 3 3 2 5 3 3 1 5 3 4 4 3 3 3 4 2 0 1 2 2 1 1 9 6 10 9 13 16 3 5 7 6 5 5 5 2 2
18 16 15 13 12 13 12 11 9 8 7 5 3 1 2 3 2 3 1 5 5 4 2 2 2 3 1 2 2 2 2 1 1 1 2 4 2 2 5 6 7 7 10 12 13 14 12 9 8 7 5 3 4 5
20 17 14 12 11 11 10 9 9 7 4 3 5 2 3 3 2 1 1 1 2 3 5 5 3 3 1 0 1 1 2 1 0 2 3 2 2 3 8 7 8 6 12 12 19 15 14 12 11 8 6 5 6 9
22 20 17 14 12 10 8 8 8 5 5 6 3 3 3 2 2 1 1 1 2 3 6 6 8 2 2 1 2 0 2 0 1 3 2 1 2 4 8 11 7 3 7 18 12 10 10 9 8 6 5 6 7 9
23 21 20 19 15 12 7 8 8 8 7 5 3 3 4 2 1 1 2 3 3 4 4 5 6 9 2 2 1 1 2 1 2 2 2 1 2 6 13 15 15 15 15 13 9 7 5 3 1 3 5 7 9 10
22 25 19 20 16 13 9 8 10 10 9 4 2 2 1 1 3 3 4 3 2 3 3 5 3 6 4 3 4 2 2 3 2 2 1 1 5 6 5 5 6 6 5 4 3 4 6 9 10 12 13 14 15 16
20 27 24 21 18 15 11 10 11 12 5 2 2 2 3 2 4 5 4 3 4 6 7 5 3 3 2 2 3 1 1 1 1 0 1 2 6 4 2 4 6 7 9 11 14 16 17 19 20 21 22 21 22 24
21 27 21 23 19 16 12 12 12 12 2 1 2 2 4 7 8 8 8 8 9 8 3 3 2 2 1 3 0 2 1 2 1 1 2 8 6 1 4 9 12 15 17 18 18 19 17 16 17 20 21 21 24 27
23 23 22 22 20 17 15 14 13 7 1 2 3 3 7 4 6 4 8 13 5 4 3 3 2 2 2 2 2 3 1 2 2 2 6 4 2 7 12 15 17 19 18 18 15 15 14 13 14 17 16 16 17 18
25 17 21 23 21 17 16 14 10 3 2 2 4 8 13 12 10 6 4 2 4 4 2 2 2 2 2 2 1 1 2 2 6 7 2 5 10 14 17 19 18 17 15 15 15 13 12 11 13 13 14 13 16 16
18 19 26 25 22 20 17 7 4 4 4 7 5 5 4 7 7 3 2 2 2 1 2 2 4 2 2 2 2 2 3 5 2 3 8 11 14 15 15 16 14 12 11 9 8 7 5 6 7 8 9 8 4 3
19 24 21 23 20 10 6 6 3 3 7 5 8 10 9 6 1 3 4 4 4 4 4 3 3 2 2 2 3 6 3 1 6 10 13 13 13 11 11 11 10 6 5 5 4 2 4 6 7 8 3 4 6 6
22 25 28 23 14 3 3 4 4 3 3 1 5 5 2 1 5 4 6 5 2 1 2 2 3 3 3 4 4 2 3 8 12 15 13 8 8 8 6 11 10 6 5 4 5 5 4 4 6 5 5 5 7 8
26 26 23 17 3 2 2 3 4 3 2 3 3 1 1 3 1 2 4 6 1 1 2 2 4 6 5 4 4 6 9 12 13 10 11 12 7 4 5 6 5 5 5 4 6 8 8 8 9 9 9 10 10 11
20 18 17 8 2 1 2 4 1 2 2 2 1 2 3 2 4 5 8 2 2 3 3 2 5 5 7 9 11 13 14 12 9 8 8 7 4 2 4 4 2 5 6 8 9 10 11 12 11 12 15 15 14 16
17 10 2 2 2 1 2 1 2 3 2 2 1 3 3 2 4 5 2 2 3 4 5 4 6 10 11 12 12 10 8 7 6 5 1 2 2 2 3 5 7 10 11 11 14 16 18 18 19 19 19 21 23 23
2 1 1 2 2 1 2 3 1 1 1 3 2 2 2 3 5 3 2 4 4 3 5 7 7 5 4 3 3 2 2 1 5 4 4 4 7 13 14 17 17 20 20 21 21 20 18 18 16 17 17 16 16 15
2 1 1 1 1 1 2 2 3 3 1 2 1 0 1 1 1 1 2 4 5 5 6 5 5 2 2 1 1 6 5 9 8 10 12 15 21 22 21 20 18 17 16 14 14 14 13 13 12 11 12 13 14 16
1 2 2 2 2 1 1 2 1 1 0 1 1 1 2 1 2 4 3 4 5 4 4 4 4 3 2 4 7 10 11 12 14 19 19 18 16 15 15 13 11 9 7 5 4 4 4 6 5 6 5 4 6 6
1 1 1 3 2 1 2 1 2 2 2 3 3 3 1 2 3 4 4 5 3 3 5 6 4 6 9 13 13 13 15 14 14 13 13 11 9 5 3 4 5 4 5 5 5 4 5 7 6 5 4 4 5 3
1 1 2 0 1 1 1 2 2 3 3 4 4 4 2 4 3 2 3 3 4 6 8 9 13 14 13 11 11 9 6 4 5 9 9 7 4 2 1 1 1 4 5 5 5 3 2 2 3 5 6 6 5 2
2 3 3 2 3 3 3 4 3 5 4 7 3 3 3 3 5 4 1 7 11 19 22 19 14 10 8 6 5 4 3 2 1 2 4 5 4 3 4 5 5 4 3 3 4 4 4 3 1 3 5 4 4 3
3 6 3 3 3 3 4 7 6 5 5 8 7 3 4 3 2 7 16 20 17 16 13 10 9 5 3 2 3 3 3 4 3 6 7 11 13 11 9 7 4 2 3 3 3 5 4 2 4 5 4 5 6 7
4 9 4 5 4 4 6 4 4 1 1 0 4 6 5 6 12 16 14 14 13 11 9 8 5 1 3 6 6 4 3 5 7 9 8 9 7 6 6 5 4 2 1 3 6 7 6 4 6 9 9 10 9 6
4 6 3 2 3 5 4 2 3 4 6 10 13 11 12 9 5 11 13 11 9 9 8 5 2 0 4 6 10 6 2 2 4 7 13 14 8 7 6 5 5 6 6 5 7 8 9 8 5 7 9 8 8 8
15 15 10 4 2 3 5 4 5 4 6 4 3 3 4 1 2 3 4 6 5 3 4 6 5 3 3 3 6 7 4 3 3 4 4 5 5 5 4 4 5 6 6 7 8 6 5 6 7 6 6 7 7 7

GFSWCAN_850_spd_042.txt.gz
Wind_Speed
25 20 19 19 16 12 8 7 4 3 4 4 4 5 5 4 4 4 3 4 4 4 8 3 4 5 6 5 4 6 5 4 2 5 5 4 8 4 3 3 1 5 5 5 2 5 5 1 5 5 5 5 4 9
25 22 22 19 18 14 10 8 5 3 2 4 3 4 5 4 4 3 3 5 5 4 6 8 10 11 10 7 7 5 3 6 6 4 1 3 3 4 1 6 2 3 4 3 5 5 3 2 4 3 3 4 4 7
28 23 22 20 18 15 12 9 7 4 3 3 2 2 4 3 3 2 2 5 6 4 7 3 1 3 2 1 4 4 4 4 3 4 5 2 1 4 5 3 3 3 1 1 3 5 5 3 3 4 4 3 3 8
28 25 23 21 19 16 14 11 8 6 4 3 3 1 2 3 3 2 2 3 3 4 5 4 2 1 1 2 3 0 3 6 5 4 4 3 2 4 2 3 4 6 2 2 2 2 1 2 3 3 4 3 7 8
28 28 22 21 20 18 15 12 9 7 6 4 3 2 2 2 2 2 1 2 4 1 5 2 0 1 1 4 4 4 4 4 4 3 3 2 3 4 2 2 4 1 2 5 4 3 2 4 2 2 4 6 9 10
26 29 25 24 21 19 16 13 10 8 7 5 3 2 2 0 2 3 1 3 3 6 3 2 1 2 2 4 2 2 2 0 2 3 3 2 1 4 3 3 4 1 1 2 4 1 2 4 3 6 8 10 11 11
30 35 31 26 23 20 16 14 11 9 7 5 3 2 2 2 4 2 1 2 4 4 3 4 4 4 4 5 2 2 1 1 1 1 4 3 2 4 3 3 8 3 2 2 4 4 4 2 5 8 9 11 12 11
37 39 33 29 24 20 17 14 11 9 6 5 4 3 2 3 4 2 3 1 4 1 2 3 2 6 5 7 5 1 2 2 3 1 4 6 3 3 4 5 3 2 3 2 3 4 3 3 5 6 7 9 9 9
41 36 30 26 23 19 16 15 12 9 6 5 4 3 5 4 2 5 4 3 4 2 4 3 3 2 5 5 2 4 3 3 2 4 3 3 4 5 3 5 6 5 4 4 4 4 2 1 4 5 6 7 10 4
28 27 26 21 19 18 17 15 13 10 8 7 9 2 3 4 4 4 1 1 2 3 4 5 1 3 5 7 7 2 4 2 3 3 3 4 5 4 2 4 6 7 7 6 5 6 3 2 3 4 4 4 3 2
18 23 27 20 18 18 18 15 13 12 11 10 4 3 4 7 3 2 3 4 4 4 6 5 5 4 3 4 3 2 3 1 3 5 3 4 4 6 2 5 7 7 6 3 2 3 2 2 2 2 2 3 4 6
23 21 23 22 18 18 17 15 15 16 9 9 7 7 6 3 3 4 3 3 4 2 5 5 3 8 2 3 4 4 3 1 4 6 3 4 5 6 6 7 8 8 9 9 7 5 4 4 4 4 6 7 8 8
21 26 25 21 20 17 16 15 16 15 13 12 3 4 4 4 3 5 7 4 3 5 3 4 5 5 5 4 4 3 5 4 4 4 3 3 8 8 6 5 5 6 7 7 6 5 5 6 6 7 9 10 12 13
22 28 24 21 20 17 15 17 17 17 10 3 4 2 4 4 4 3 2 3 5 1 2 2 4 5 4 4 3 3 2 2 3 4 2 4 10 8 5 4 4 6 7 7 8 8 9 9 10 11 11 12 14 15
22 27 20 23 19 17 15 17 18 16 2 3 3 3 5 1 3 2 2 2 3 2 2 3 3 2 4 3 2 3 3 4 2 1 3 7 8 5 1 4 6 8 9 11 11 11 11 11 11 12 11 12 13 16
30 24 23 24 22 19 16 17 18 7 2 2 3 4 5 4 5 6 5 4 2 2 3 3 3 3 4 2 3 4 2 2 2 4 9 9 6 2 4 7 9 11 12 12 12 11 10 10 10 11 12 13 14 14
32 15 27 27 20 20 17 13 8 3 2 2 4 5 2 0 1 2 2 2 2 3 4 4 4 2 1 3 3 1 1 2 7 9 8 6 2 3 6 8 9 9 10 10 9 8 8 9 8 8 9 10 10 12
17 29 31 26 23 23 16 7 2 3 4 5 6 7 3 1 2 2 3 3 3 3 2 1 1 3 2 2 1 2 5 7 7 5 3 2 4 5 6 7 10 9 8 7 6 6 4 5 5 5 7 9 8 10
31 33 30 27 22 15 6 6 2 3 5 5 5 4 3 2 2 1 1 2 3 3 2 3 2 3 0 1 1 3 5 4 3 1 3 4 4 5 5 5 6 6 5 3 3 3 3 4 4 6 6 5 5 7
31 31 27 22 20 4 4 4 4 3 5 5 4 5 3 2 5 4 3 2 2 2 4 3 2 4 2 2 2 2 2 1 2 4 5 5 4 5 7 6 6 4 1 3 3 2 2 1 2 2 3 4 6 7
27 27 19 12 4 2 3 3 4 3 2 3 5 5 3 7 6 4 3 2 4 2 4 2 1 2 3 2 1 2 2 2 4 6 7 7 6 8 5 4 3 4 1 2 2 4 3 3 4 7 6 7 7 7
20 18 5 4 1 1 1 3 2 2 2 3 6 4 4 5 4 2 3 4 4 1 2 2 2 2 3 4 5 6 7 9 9 10 9 7 7 3 3 2 2 3 6 6 5 5 5 6 7 9 11 13 13 13
19 8 2 2 0 1 3 2 3 1 3 5 5 4 3 2 1 2 3 2 2 3 2 2 3 4 5 7 8 9 9 9 8 6 5 4 3 4 3 5 8 10 11 11 10 10 14 15 13 10 9 9 7 8
4 1 0 0 1 1 2 2 2 1 2 2 2 2 2 2 3 2 2 2 3 3 2 3 3 4 5 4 4 4 4 5 4 3 4 6 7 10 12 11 9 9 9 9 9 10 9 9 12 9 9 9 9 8
2 1 1 2 1 2 2 2 1 1 1 1 1 2 2 1 1 1 2 3 2 3 3 4 4 4 3 4 3 2 4 5 6 7 14 19 22 20 14 12 10 10 10 10 10 9 7 6 6 6 7 8 7 8
2 1 0 2 3 1 2 2 2 2 2 2 1 2 2 2 1 3 2 1 2 2 4 4 4 4 3 2 3 3 7 10 13 16 15 13 10 11 10 9 8 6 5 4 4 3 1 2 4 5 5 4 5 5
1 2 1 2 1 2 3 2 2 2 2 3 2 3 2 2 3 2 1 2 3 3 3 3 4 3 3 7 11 10 10 11 11 10 10 8 7 6 5 4 4 4 4 3 3 3 2 0 3 4 5 7 3 3
2 0 1 2 2 1 0 1 3 3 3 3 3 4 2 2 1 1 2 4 7 4 3 3 7 17 16 15 11 9 8 9 11 8 7 5 4 3 2 2 3 4 2 2 3 5 5 4 2 3 3 5 1 3
1 1 2 2 2 3 3 3 2 1 2 4 1 2 2 2 4 8 10 8 3 7 12 23 18 18 16 13 11 8 6 6 7 7 9 8 6 6 5 5 5 3 2 1 3 3 1 2 2 3 3 2 2 5
2 4 2 3 2 3 2 4 3 7 7 8 8 5 7 10 11 5 3 9 10 23 20 17 11 8 7 6 6 4 3 3 4 3 4 7 5 4 6 5 4 3 3 2 1 2 2 2 2 3 4 5 6 8
3 6 1 3 3 3 3 5 6 8 8 3 7 6 5 1 5 11 21 29 20 13 8 6 4 3 2 2 2 3 5 3 4 4 5 6 7 6 5 4 3 2 3 3 4 5 7 8 8 8 8 7 7 7
5 6 3 3 1 2 2 3 4 4 3 3 3 9 9 11 10 13 21 18 9 6 6 5 2 2 4 4 4 4 4 1 4 7 9 7 5 5 4 4 6 7 7 8 8 8 8 9 7 5 5 5 5 5
3 4 3 1 2 3 3 3 3 4 4 9 10 9 7 5 5 8 10 12 10 7 5 5 4 5 4 2 2 5 6 5 2 1 1 10 15 11 4 3 3 3 4 5 6 7 6 4 4 4 4 4 4 3

GFSWCAN_850_spd_045.txt.gz
Wind_Speed
34 26 22 22 20 18 14 10 7 5 3 2 1 1 2 2 2 5 5 1 2 5 3 2 3 5 8 7 9 13 7 7 8 9 10 7 9 12 12 6 12 15 13 13 15 11 7 5 2 5 9 6 9 10
34 30 28 24 22 19 15 12 9 6 4 3 2 1 1 1 2 4 1 4 2 3 3 5 6 7 6 6 9 8 6 5 8 5 4 3 9 1 16 7 3 3 6 3 10 5 1 11 10 12 6 8 9 9
39 32 28 25 21 20 17 13 10 8 6 4 2 2 0 0 1 1 1 5 4 4 7 6 4 1 2 2 3 6 4 4 2 6 7 3 1 12 5 7 5 4 3 0 6 6 11 8 7 9 6 7 8 9
37 35 28 24 22 22 19 15 11 9 6 4 2 2 1 0 1 1 3 4 3 4 6 6 1 2 3 2 1 1 4 6 7 5 4 4 9 15 10 5 8 8 5 3 1 7 6 9 8 6 6 6 8 8
38 35 28 25 23 22 19 16 12 9 7 5 3 3 2 1 2 3 1 2 4 2 7 5 2 3 3 3 2 1 3 4 4 4 5 3 11 9 10 6 3 7 5 1 3 7 4 9 5 4 5 7 8 9
40 34 29 24 23 22 20 16 12 10 7 6 4 3 2 2 3 4 4 2 3 4 4 3 5 5 6 5 4 2 3 3 3 3 3 5 5 6 6 8 14 6 5 8 7 3 5 5 3 4 6 7 7 8
38 36 29 29 25 22 20 16 13 10 8 6 4 3 3 3 4 3 2 4 0 2 3 5 6 8 7 8 9 9 4 5 5 3 5 11 13 8 8 9 6 9 7 7 7 3 4 5 7 7 8 7 9 10
37 32 28 31 26 23 20 16 13 10 8 6 4 3 3 3 5 2 2 2 2 1 3 4 2 5 10 12 12 6 9 7 7 5 2 5 3 6 5 6 2 14 12 4 7 9 7 5 7 10 9 10 19 15
39 35 29 33 28 25 19 16 12 11 8 6 5 5 6 3 3 4 5 3 1 3 5 4 7 4 7 13 2 2 6 6 6 7 10 11 8 7 8 2 1 3 4 4 3 1 2 1 4 16 10 8 2 5
32 41 34 36 32 27 21 17 14 12 10 9 10 2 5 4 5 4 2 2 4 6 6 8 5 3 5 11 10 5 5 7 4 9 9 5 11 6 5 2 5 5 5 5 5 7 5 4 1 2 9 5 10 6
41 42 41 35 29 27 22 19 17 14 13 8 5 2 1 5 3 2 3 5 7 4 8 11 8 6 6 6 3 8 2 4 5 5 5 6 7 11 7 2 1 3 2 0 0 1 1 3 4 5 2 2 4 3
21 25 28 30 28 24 22 20 19 17 9 10 4 6 6 4 3 4 4 4 5 4 6 7 8 12 3 3 2 5 2 4 5 2 4 8 5 9 9 7 4 4 5 5 5 4 4 3 2 1 3 1 1 2
23 22 24 27 26 22 23 22 22 15 13 8 3 5 3 4 1 5 8 5 5 6 6 8 8 7 4 5 5 3 3 5 5 3 5 4 9 8 6 7 6 5 4 4 4 3 2 1 1 3 5 6 7 8
22 19 20 26 25 22 21 21 21 20 9 6 6 1 5 5 5 5 6 4 9 3 8 5 4 7 4 3 6 3 4 4 5 5 3 5 11 10 8 4 4 3 3 3 4 4 5 5 6 7 8 9 9 11
20 24 23 22 22 20 19 21 22 13 3 4 5 3 7 5 2 5 1 2 6 4 3 5 4 4 7 4 3 2 4 5 1 2 4 12 13 9 7 3 2 3 5 7 7 8 8 8 8 9 9 10 11 12
26 27 24 24 20 18 20 21 20 5 3 3 4 5 3 7 9 9 9 8 7 6 6 5 4 4 4 3 3 6 4 2 4 7 8 10 9 7 4 2 4 6 7 9 9 8 8 8 8 9 10 10 10 9
30 11 25 24 20 17 19 13 10 4 4 4 6 7 9 6 4 5 6 4 5 5 4 2 3 5 3 3 4 2 2 3 7 6 7 8 6 4 4 5 6 8 7 8 7 6 6 7 8 6 5 5 7 7
21 18 25 26 24 20 11 8 6 5 6 8 5 10 8 2 4 3 6 6 4 3 4 3 4 3 4 3 2 4 7 7 6 6 6 4 3 4 5 5 6 6 5 5 6 7 4 4 4 5 7 7 6 6
24 25 25 23 24 11 6 5 2 4 11 10 6 6 7 7 3 7 6 6 6 3 4 3 3 1 3 2 7 5 4 3 2 1 1 1 3 5 6 4 4 4 3 4 3 3 4 4 3 5 4 4 5 6
31 29 27 27 19 5 2 4 3 4 5 8 10 12 6 3 8 9 7 7 8 9 5 3 4 6 4 7 5 4 2 1 4 6 4 3 2 5 6 6 4 4 3 4 3 4 2 2 2 4 4 4 4 5
29 29 24 13 5 5 4 6 7 4 3 5 7 6 6 8 7 7 5 5 8 4 4 3 2 4 3 1 2 2 3 3 5 6 8 9 6 7 7 3 3 4 3 2 1 2 3 2 3 4 3 5 6 9
20 15 10 5 3 4 3 5 3 4 4 4 8 8 5 7 7 5 2 7 5 2 1 1 1 1 2 2 2 4 6 7 8 8 8 7 5 3 1 4 3 2 3 3 1 2 3 3 5 9 8 4 6 8
10 4 4 2 2 2 2 5 5 4 4 7 7 5 4 5 5 3 4 3 2 0 2 3 2 3 4 5 6 7 8 8 7 7 6 4 2 3 4 2 4 8 8 6 8 9 11 11 7 7 4 4 1 1
4 1 1 2 2 2 4 4 3 2 4 5 5 4 2 3 1 3 2 2 2 2 4 4 4 5 4 4 4 4 4 4 4 4 4 5 5 4 10 8 7 7 9 10 10 9 8 4 4 2 3 6 6 5
3 1 2 3 2 3 4 4 1 2 2 1 2 2 4 1 1 2 1 5 3 3 2 4 4 4 4 3 3 4 0 4 3 2 4 5 12 11 7 5 6 7 8 8 7 7 5 3 3 3 4 7 5 5
1 4 3 3 4 2 3 3 3 2 1 1 1 2 2 2 1 2 2 5 1 2 3 6 6 4 3 2 2 5 3 10 17 12 13 12 10 7 8 7 7 5 3 3 2 1 1 4 3 3 1 1 5 3
2 2 4 3 2 2 2 2 2 2 2 3 3 3 1 2 3 1 2 1 3 3 5 3 4 3 3 5 3 11 16 12 9 7 8 7 6 6 6 4 0 2 4 3 3 3 1 1 2 4 5 4 2 2
3 2 3 5 4 3 2 2 3 3 4 3 2 3 2 2 1 1 1 3 3 4 1 1 1 7 14 13 13 11 9 8 9 6 5 5 4 2 1 4 3 6 2 1 1 3 5 5 4 4 5 4 1 2
2 3 3 4 4 3 4 2 1 1 2 2 3 1 3 2 1 5 6 6 3 4 4 12 19 14 9 6 6 8 8 8 7 5 5 7 7 4 5 5 2 2 5 4 4 4 3 4 2 3 5 4 5 6
1 2 1 2 2 0 1 1 2 1 1 1 3 7 8 9 10 8 6 6 9 16 19 13 11 8 8 8 7 6 7 5 9 9 9 11 8 10 7 5 5 4 3 3 4 3 4 1 5 5 6 7 6 6
1 2 1 1 2 4 4 1 1 4 6 4 2 7 8 6 1 7 11 17 23 15 9 9 8 5 6 6 1 3 9 4 5 1 2 1 3 3 5 5 4 3 3 4 4 6 6 8 8 10 8 5 6 8
3 4 2 3 3 0 3 3 3 3 2 2 2 3 7 11 11 14 19 15 10 9 6 1 5 5 1 3 3 2 2 2 1 3 4 3 1 3 4 4 4 4 5 7 8 8 7 8 9 7 6 7 6 7
2 3 2 2 2 2 4 4 5 7 4 7 7 12 12 11 9 9 12 11 7 4 3 2 2 3 2 1 2 3 5 7 7 6 7 9 12 10 8 5 5 5 7 7 8 9 8 6 7 7 8 8 7 7

GFSWCAN_850_spd_048.txt.gz
Wind_Speed
34 36 34 29 22 18 17 14 11 9 7 6 6 3 1 1 2 3 1 7 4 9 6 4 5 5 7 4 7 14 10 9 9 10 10 12 8 4 9 14 14 10 10 12 13 17 14 19 13 3 7 28 24 21
32 34 35 30 24 20 18 16 12 10 8 6 6 4 1 1 3 7 3 5 6 7 8 6 7 7 6 4 7 10 10 5 8 7 7 6 6 6 9 10 13 5 4 2 8 3 3 14 15 14 7 2 12 12
32 34 37 31 30 22 20 17 14 10 8 7 6 5 2 2 3 5 2 4 7 10 12 13 12 4 5 5 4 8 6 6 4 7 8 6 4 5 5 5 15 4 6 6 21 6 7 6 15 14 6 2 7 10
31 36 38 27 28 23 20 18 14 11 9 7 6 5 3 2 3 5 5 5 5 8 7 11 4 4 5 5 2 1 4 7 9 10 14 8 4 3 1 3 6 15 9 8 6 15 14 18 9 9 7 4 6 7
31 39 39 28 27 23 21 18 15 12 9 7 6 5 4 3 3 4 2 3 3 5 7 3 3 4 5 5 4 2 3 6 8 8 5 6 3 6 6 3 5 23 12 7 4 8 14 10 8 9 9 8 9 10
34 43 32 32 27 23 21 18 16 12 9 7 6 5 4 2 3 6 4 2 6 2 5 3 7 5 6 5 5 5 5 6 7 5 9 4 10 3 4 4 12 7 19 20 17 21 20 15 9 9 7 11 9 10
35 41 33 31 26 23 21 19 17 12 9 8 6 4 3 3 7 3 2 4 2 1 4 4 5 7 7 7 9 9 8 9 6 6 4 5 3 4 4 8 14 10 16 15 34 8 9 8 9 7 9 12 16 16
37 38 37 33 27 24 21 19 16 12 8 7 5 4 3 4 4 1 2 1 2 0 4 4 2 9 8 9 9 9 6 10 8 10 4 4 6 1 4 11 17 8 13 19 18 35 17 11 19 24 23 23 23 19
38 39 37 34 30 25 22 19 15 11 9 7 6 6 6 5 3 4 6 3 1 3 6 5 7 4 5 10 10 5 5 7 11 8 10 7 7 5 9 15 18 3 6 6 13 16 11 9 17 13 8 6 17 8
39 37 32 30 31 29 24 19 15 12 11 11 11 2 5 5 7 3 1 3 3 5 6 8 13 2 7 8 6 4 2 6 7 10 15 8 8 17 20 18 9 4 5 4 2 14 11 7 15 14 19 16 13 11
36 38 32 25 33 29 26 20 16 16 14 10 4 2 3 4 4 3 5 5 7 4 7 11 15 9 4 2 5 10 4 7 6 5 6 7 9 13 14 7 3 1 2 5 6 6 6 7 9 7 9 14 14 9
34 37 36 28 33 31 27 22 21 20 8 4 2 4 5 4 4 4 4 4 4 5 7 9 9 10 3 4 6 5 2 5 4 3 3 7 6 13 10 6 4 6 4 3 4 4 5 6 8 9 11 2 5 3
27 40 47 32 37 32 28 27 23 15 12 4 2 6 4 3 1 5 7 4 5 3 5 6 4 4 3 3 5 3 1 4 13 4 4 2 9 13 9 8 7 4 4 4 3 2 3 3 4 5 3 2 2 2
24 30 32 35 33 31 32 27 25 18 10 6 6 3 4 4 5 5 8 6 8 11 10 12 8 6 6 4 3 3 4 4 1 2 5 0 7 9 9 8 8 7 4 4 4 5 6 6 6 5 5 4 4 4
17 19 25 28 30 32 30 29 24 17 3 6 6 3 8 9 8 10 11 6 2 3 5 4 5 7 3 3 4 3 4 4 3 1 3 8 10 9 7 6 3 4 3 5 6 7 8 7 7 6 5 7 8 5
22 20 26 29 26 25 26 28 20 6 3 3 4 6 8 7 7 4 3 6 10 8 6 5 2 4 3 6 6 6 4 1 2 3 5 4 5 7 5 4 3 3 3 4 4 5 5 5 7 8 7 4 6 7
25 19 25 27 26 22 24 24 6 4 5 3 6 8 10 2 4 8 9 8 6 7 2 2 3 6 3 3 8 3 3 5 11 12 14 4 5 5 4 3 4 5 4 4 4 3 3 4 4 5 4 4 5 4
19 26 25 27 27 26 22 14 7 6 5 10 8 10 3 5 4 1 4 10 6 6 6 3 3 6 4 6 3 3 13 6 9 14 12 7 4 3 4 5 5 6 4 4 3 2 1 2 3 3 4 5 4 6
24 27 26 29 20 13 7 5 3 6 12 10 4 6 6 6 3 1 2 4 5 2 2 4 4 4 2 6 5 9 7 7 6 7 5 5 3 2 3 5 5 5 5 3 4 5 3 3 3 3 5 4 5 6
24 25 26 21 13 3 4 5 3 5 4 7 10 8 6 4 4 7 5 8 10 9 8 4 4 5 9 11 6 7 4 3 4 4 9 3 2 3 4 5 4 4 3 3 3 5 3 4 4 3 5 6 6 5
21 26 21 10 1 1 2 6 5 2 3 3 10 8 3 4 8 4 11 6 9 3 8 4 4 8 1 3 3 3 7 5 5 7 8 8 8 7 6 4 3 4 4 2 2 3 4 4 5 5 5 6 6 7
22 17 6 3 1 2 3 2 2 3 2 4 4 5 2 3 5 7 6 9 7 6 1 1 3 5 4 6 6 5 6 7 7 7 8 4 4 4 2 2 2 2 2 3 2 2 2 4 6 9 9 4 1 4
8 1 3 4 5 5 3 6 3 4 4 8 6 4 3 4 6 8 5 4 2 6 3 3 4 3 3 5 6 7 6 6 5 5 3 4 4 3 2 3 2 7 8 8 7 7 9 12 6 2 2 4 3 4
1 1 2 2 3 3 7 5 5 2 4 5 4 4 3 5 7 6 2 2 1 3 1 2 4 5 6 1 3 5 6 4 4 4 4 4 2 2 7 10 8 9 7 7 8 7 7 3 1 5 8 5 5 4
3 2 2 4 2 2 1 3 3 2 2 3 2 2 3 5 3 3 1 6 2 2 4 1 3 3 5 1 2 4 4 1 2 3 4 6 10 10 7 5 6 5 7 7 7 4 4 2 3 5 7 8 3 4
2 3 3 2 4 1 0 2 3 6 5 2 2 4 3 3 2 1 3 2 3 3 3 5 6 5 3 2 1 3 2 9 13 13 17 16 12 6 3 3 3 6 6 7 2 3 6 1 2 2 2 2 4 2
2 1 3 2 1 2 2 2 3 2 1 1 3 4 2 2 2 1 5 6 3 3 4 3 3 3 2 4 5 9 19 10 8 8 10 7 4 4 3 1 2 4 3 2 2 5 3 2 3 4 2 4 2 2
2 1 3 5 3 4 1 2 4 3 3 3 1 1 2 0 1 2 3 3 4 4 4 2 4 6 5 7 17 19 11 7 5 6 7 8 12 5 6 4 4 4 3 2 2 2 4 5 6 6 5 6 5 2
3 2 1 4 5 2 2 0 2 4 5 6 3 3 5 3 3 2 3 6 5 4 2 5 14 18 18 15 9 8 8 6 8 3 1 5 5 5 5 6 4 5 8 4 5 4 2 6 4 4 6 7 7 6
2 1 3 3 1 0 2 3 2 0 1 1 3 5 6 7 8 9 7 5 4 5 12 15 8 8 6 7 5 6 10 9 6 7 7 9 10 6 8 10 8 4 6 9 6 5 5 4 5 6 6 9 9 5
1 1 1 1 2 3 5 5 1 1 0 2 4 4 5 5 6 4 6 9 13 11 9 6 3 4 5 2 2 8 8 3 1 3 4 5 6 6 6 5 5 4 5 4 4 6 8 8 7 11 8 5 7 6
1 2 1 2 3 4 2 1 1 1 1 2 2 2 2 3 2 4 17 10 9 6 1 4 8 7 5 11 5 5 4 3 7 3 3 3 2 1 3 4 5 5 5 5 7 8 7 8 10 9 8 4 5 7
3 4 4 2 0 2 7 5 5 6 6 5 6 13 16 14 8 10 11 11 9 7 10 14 1 5 4 2 1 3 4 4 6 7 8 10 10 10 8 5 4 7 5 5 9 8 8 5 6 7 8 10 10 9